{"data":{"norad_id":47874,"epoch":"2026-05-25T05:11:57.112800Z","epoch_age_seconds":66979,"freshness":"FRESH","line1":"1 47874U 21021Q   26145.21663325  .00045207  00000+0  13016-2 0  9992","line2":"2 47874  53.1438 220.0646 0004077 343.7195  16.3677 15.35334352288693","mean_motion":15.35334352,"eccentricity":0.0004077,"inclination_deg":53.1438,"raan_deg":220.0646,"arg_perigee_deg":343.7195,"mean_anomaly_deg":16.3677,"bstar":0.0013016,"rev_number":28869,"period_min":93.790645544027,"perigee_km":457.13967870135,"apogee_km":462.71543654164,"semimajor_km":6838.0645576215,"source":"CELESTRAK","updated_at":"2026-05-25T13:38:16.610493Z"}}